#timestamp,LO_Frequency,Hit,StdDev 
1687424415.8,286047002.8,N
1687424435.7,286047002.8,N
1687424455.5,286046999.8,N
1687424475.3,286046999.9,N
1687424495.2,286047000.6,N
1687424515.0,286047000.1,N
1687424515.9,286047000.1,N
1687424535.8,286046999.7,N
1687424555.6,286047002.3,N
1687424575.4,286047001.2,N
1687424595.3,286047001.1,N
1687424615.1,286047000.7,N
1687424635.8,286047001.1,N
1687424655.7,286046998.3,N
1687424675.5,286047000.8,N
1687424695.4,286047000.8,N
1687424715.2,286047000.8,N
1687424735.0,286047000.6,N
1687424735.9,286047000.6,N
1687424755.8,286047000.5,N
1687424775.6,286047000.8,N
1687424795.4,286047000.2,N
1687424815.3,286047001.5,N
1687424835.1,286047002.6,N
1687424855.9,286046999.8,N
1687424875.7,286047000.1,N
1687424895.5,286046999.9,N
1687424915.4,286046999.7,N
1687424935.2,286046999.8,N
1687424955.0,286047000.5,N
1687424955.9,286047000.5,N
1687424975.8,286047000.5,N
1687424995.6,286047001.0,N
1687425015.5,286046998.4,N
1687425065.3,286046999.8,E
1687425075.2,286046999.9,N
1687425095.1,286047002.5,P
1687425096.0,286047002.5,N
1687425115.8,286047004.3,Y
1687425135.7,286046999.9,P
1687425155.5,286047000.8,N
1687425175.3,286046998.5,N
1687425195.2,286046998.5,N
1687425215.0,286046998.2,N
1687425215.9,286046998.2,N
1687425235.8,286046998.7,N
1687425255.6,286046998.9,N
1687425275.4,286046996.6,N
1687425295.3,286046999.0,N
1687425315.1,286046998.7,N
1687425335.8,286046999.1,N
1687425355.7,286046998.7,N
1687425375.5,286047001.2,N
1687425395.4,286046998.1,N
1687425415.2,286046998.6,N
1687425435.0,286046998.4,N
1687425435.9,286046998.4,N
1687425455.8,286046998.6,N
1687425475.6,286047001.1,N
1687425495.4,286047000.1,N
1687425515.3,286047000.9,N
1687425535.1,286047001.0,N
1687425555.9,286047000.9,N
1687425575.7,286047001.0,N
1687425595.5,286047001.1,N
1687425615.4,286047000.3,N
1687425635.2,286047000.2,N
1687425655.0,286047000.0,N
1687425655.9,286047000.0,N
1687425675.8,286047000.4,N
1687425695.6,286047000.7,N
1687425715.5,286047001.2,N
1687425735.3,286046998.9,N
1687425755.1,286046998.4,N
1687425775.9,286046998.8,N
1687425795.7,286047001.1,N
1687425815.5,286047000.7,N
1687425835.4,286047001.0,N
1687425855.2,286046998.1,N
1687425875.1,286046998.5,N
1687425876.0,286046998.5,N
1687425895.8,286046998.3,N
1687425915.6,286046998.5,N
1687425935.5,286046998.2,N
1687425955.3,286046998.1,N
1687425975.1,286047000.8,N
1687425995.9,286047000.9,N
1687426015.7,286047000.4,N
1687426035.6,286047000.3,N
1687426055.4,286047000.0,N
1687426075.2,286047000.0,N
1687426095.1,286047000.6,N
1687426096.0,286047000.6,N
1687426115.8,286046998.1,N
1687426135.6,286047000.8,N
1687426155.5,286047000.3,N
1687426175.3,286047000.5,N
1687426195.2,286047001.1,N
1687426215.9,286047000.8,N
1687426235.7,286046998.1,N
1687426255.6,286046999.9,N
1687426275.4,286047000.1,N
1687426295.2,286047000.5,N
1687426315.1,286047000.9,N
1687426316.0,286047000.9,N
1687426335.8,286047000.6,N
1687426355.7,286047000.6,N
1687426375.5,286047000.5,N
1687426395.3,286047000.9,N
1687426415.2,286047000.9,N
1687426435.9,286046998.1,N
1687426455.7,286046998.1,N
1687426475.6,286047001.1,N
1687426495.4,286046998.3,N
1687426515.2,286047000.5,N
1687426535.1,286047000.0,N
1687426536.0,286047000.0,N
1687426555.8,286047000.6,N
1687426575.7,286046998.6,N
1687426595.5,286046998.2,N
1687426615.3,286046998.5,N
1687426635.2,286047001.2,N
1687426655.0,286047000.3,N
1687426655.9,286047000.3,N
1687426675.8,286047000.8,N
1687426695.6,286047000.3,N
1687426715.4,286047000.2,N
1687426735.3,286047000.3,N
1687426755.1,286047000.9,N
1687426775.9,286047000.9,N
1687426795.7,286047000.6,N
1687426815.5,286046999.8,N
1687426835.4,286047000.6,N
1687426855.2,286047002.6,N
1687426875.1,286047000.9,N
1687426876.0,286047000.9,N
1687426895.8,286047001.4,N
1687426915.6,286047001.4,N
1687426935.5,286047001.3,N
1687426955.3,286047001.7,N
1687426975.1,286047002.0,N
1687426995.9,286047000.1,N
1687427015.7,286047001.2,N
1687427035.6,286046998.2,N
1687427055.4,286047002.8,N
1687427075.2,286047002.3,N
1687427095.1,286047001.3,N
1687427096.0,286047001.3,N
1687427115.8,286047000.3,N
1687427135.7,286046999.8,N
1687427155.5,286046999.7,N
1687427175.3,286047001.9,N
1687427195.2,286046999.8,N
1687427215.0,286047000.5,N
1687427215.9,286047000.5,N
1687427235.8,286047002.4,N
1687427255.6,286046999.6,N
1687427275.4,286046997.8,N
1687427295.3,286046997.0,N
1687427315.1,286046998.0,N
1687427335.8,286046996.4,N
1687427355.7,286046993.3,Y
1687427375.5,286046996.0,P
1687427395.4,286046996.8,N
1687427415.2,286046999.0,N
1687427435.0,286046999.2,N
1687427435.9,286046999.2,N
1687427455.8,286046996.7,N
1687427475.6,286046997.8,N
1687427495.5,286046996.6,N
1687427515.3,286046994.9,Y
1687427535.1,286046994.9,P
1687427555.9,286046995.9,N
1687427575.7,286046996.3,N
1687427595.5,286046996.0,Y
1687427615.4,286047001.0,P
1687427635.2,286046999.9,N
1687427655.1,286047004.3,N
1687427656.0,286047004.3,N
1687427675.8,286047000.4,N
1687427695.6,286047002.5,N
1687427715.5,286047000.6,N
1687427735.3,286047000.5,N
1687427755.2,286047001.7,N
1687427775.9,286047000.6,N
1687427795.7,286046997.2,N
1687427815.6,286046998.6,N
1687427835.4,286047002.7,N
1687427855.2,286047002.4,N
1687427875.1,286047001.7,N
1687427876.0,286047001.7,N
1687427895.8,286047001.9,N
1687427915.7,286046999.5,N
1687427935.5,286046996.7,N
1687427955.3,286046996.7,N
1687427975.2,286046997.0,N
1687427995.0,286046998.7,N
1687427995.9,286046998.7,N
